QPF
0.05 0.07 0.06 0.06 0.08 0.09 0.08 0.08 0.09 0.08 0.09 0.10 0.11 0.13 0.14 0.15 0.14 0.14 0.14 0.11 0.09 0.08 0.07 0.08 0.08 0.08 0.08 0.08 0.07 0.06 0.07 0.07 0.06 0.04 0.02 0.02 0.02 0.01 0.00 0.00 0.00 0.01 0.01
0.04 0.07 0.06 0.05 0.07 0.09 0.11 0.10 0.10 0.08 0.07 0.07 0.08 0.10 0.13 0.15 0.15 0.15 0.16 0.16 0.14 0.12 0.10 0.09 0.08 0.08 0.07 0.06 0.05 0.05 0.06 0.06 0.05 0.05 0.03 0.02 0.02 0.01 0.01 0.01 0.01 0.02 0.02
0.04 0.06 0.07 0.05 0.06 0.08 0.10 0.11 0.11 0.11 0.08 0.08 0.09 0.09 0.10 0.14 0.15 0.15 0.15 0.15 0.15 0.15 0.12 0.11 0.09 0.07 0.06 0.05 0.04 0.05 0.05 0.05 0.04 0.04 0.04 0.03 0.02 0.02 0.02 0.02 0.02 0.02 0.02
0.04 0.05 0.06 0.05 0.05 0.07 0.09 0.11 0.10 0.12 0.10 0.08 0.09 0.10 0.09 0.11 0.14 0.15 0.15 0.16 0.15 0.15 0.14 0.13 0.10 0.07 0.05 0.04 0.03 0.04 0.05 0.04 0.04 0.04 0.04 0.04 0.03 0.02 0.02 0.03 0.03 0.03 0.03
0.04 0.05 0.05 0.04 0.05 0.06 0.08 0.11 0.11 0.12 0.13 0.10 0.09 0.11 0.10 0.11 0.13 0.16 0.16 0.15 0.14 0.13 0.13 0.13 0.11 0.08 0.06 0.04 0.03 0.04 0.05 0.04 0.03 0.03 0.03 0.03 0.03 0.03 0.03 0.03 0.03 0.03 0.03
0.06 0.05 0.06 0.05 0.06 0.07 0.07 0.09 0.10 0.11 0.15 0.14 0.11 0.11 0.12 0.12 0.13 0.14 0.14 0.14 0.14 0.13 0.12 0.11 0.10 0.08 0.06 0.04 0.04 0.04 0.05 0.05 0.04 0.03 0.03 0.03 0.02 0.03 0.03 0.04 0.04 0.03 0.02
0.07 0.06 0.06 0.06 0.07 0.10 0.09 0.08 0.10 0.11 0.14 0.17 0.16 0.14 0.12 0.13 0.14 0.13 0.12 0.13 0.15 0.14 0.10 0.09 0.08 0.06 0.05 0.04 0.04 0.05 0.06 0.06 0.05 0.04 0.03 0.03 0.03 0.04 0.04 0.03 0.03 0.02 0.02
0.05 0.07 0.07 0.07 0.08 0.10 0.11 0.10 0.11 0.12 0.14 0.17 0.16 0.15 0.14 0.14 0.13 0.13 0.14 0.13 0.15 0.13 0.09 0.08 0.06 0.05 0.04 0.04 0.04 0.05 0.05 0.05 0.05 0.04 0.04 0.04 0.04 0.04 0.03 0.03 0.03 0.03 0.03
0.03 0.05 0.05 0.06 0.08 0.10 0.10 0.14 0.12 0.13 0.15 0.15 0.14 0.15 0.16 0.17 0.14 0.12 0.12 0.13 0.14 0.13 0.10 0.07 0.06 0.05 0.04 0.04 0.04 0.05 0.05 0.04 0.05 0.05 0.04 0.03 0.03 0.03 0.03 0.03 0.03 0.03 0.04
0.04 0.04 0.04 0.04 0.07 0.10 0.09 0.13 0.14 0.12 0.12 0.12 0.12 0.15 0.16 0.15 0.13 0.12 0.11 0.11 0.13 0.13 0.11 0.08 0.06 0.06 0.05 0.05 0.04 0.04 0.04 0.04 0.03 0.04 0.04 0.04 0.03 0.03 0.03 0.02 0.02 0.03 0.04
0.03 0.03 0.03 0.04 0.05 0.07 0.07 0.09 0.11 0.09 0.09 0.12 0.13 0.14 0.12 0.12 0.12 0.11 0.09 0.09 0.10 0.11 0.12 0.08 0.06 0.07 0.06 0.05 0.05 0.04 0.04 0.03 0.03 0.04 0.04 0.03 0.03 0.02 0.02 0.02 0.02 0.03 0.04
0.03 0.03 0.04 0.04 0.05 0.05 0.06 0.07 0.08 0.09 0.11 0.14 0.12 0.11 0.11 0.11 0.11 0.11 0.09 0.09 0.10 0.09 0.09 0.08 0.06 0.07 0.07 0.06 0.05 0.05 0.06 0.05 0.04 0.05 0.05 0.04 0.03 0.02 0.02 0.02 0.03 0.03 0.04
0.03 0.04 0.04 0.05 0.05 0.06 0.06 0.07 0.08 0.11 0.12 0.12 0.10 0.09 0.09 0.10 0.11 0.12 0.10 0.10 0.10 0.09 0.08 0.09 0.08 0.07 0.07 0.07 0.07 0.07 0.07 0.07 0.07 0.06 0.05 0.04 0.03 0.03 0.03 0.03 0.04 0.04 0.04
0.04 0.04 0.04 0.05 0.06 0.05 0.05 0.07 0.07 0.09 0.10 0.11 0.12 0.10 0.08 0.08 0.09 0.10 0.11 0.12 0.12 0.09 0.10 0.09 0.09 0.09 0.09 0.09 0.09 0.08 0.07 0.07 0.07 0.05 0.05 0.04 0.03 0.03 0.04 0.04 0.04 0.04 0.04
0.04 0.05 0.05 0.05 0.06 0.05 0.05 0.06 0.06 0.06 0.07 0.09 0.10 0.10 0.09 0.07 0.07 0.09 0.11 0.12 0.12 0.09 0.09 0.09 0.09 0.09 0.10 0.11 0.10 0.09 0.08 0.08 0.07 0.06 0.06 0.05 0.04 0.04 0.05 0.05 0.05 0.05 0.05
0.05 0.06 0.05 0.05 0.06 0.06 0.06 0.06 0.06 0.05 0.05 0.06 0.08 0.10 0.10 0.10 0.08 0.08 0.10 0.10 0.09 0.09 0.07 0.06 0.07 0.08 0.10 0.10 0.10 0.08 0.08 0.07 0.05 0.04 0.05 0.05 0.05 0.05 0.05 0.06 0.07 0.06 0.05
0.06 0.06 0.05 0.05 0.06 0.05 0.06 0.05 0.06 0.05 0.04 0.05 0.07 0.09 0.11 0.11 0.09 0.08 0.10 0.08 0.07 0.06 0.05 0.04 0.05 0.06 0.09 0.10 0.10 0.08 0.07 0.07 0.06 0.05 0.05 0.05 0.05 0.05 0.06 0.07 0.06 0.05 0.04
0.04 0.04 0.04 0.05 0.06 0.05 0.04 0.04 0.05 0.06 0.07 0.08 0.11 0.12 0.12 0.11 0.10 0.10 0.08 0.07 0.06 0.05 0.04 0.04 0.04 0.05 0.07 0.09 0.09 0.09 0.08 0.07 0.06 0.06 0.06 0.06 0.07 0.06 0.07 0.06 0.05 0.04 0.04
0.04 0.04 0.04 0.05 0.06 0.04 0.04 0.04 0.05 0.05 0.07 0.10 0.13 0.15 0.14 0.12 0.10 0.09 0.08 0.05 0.05 0.04 0.03 0.03 0.03 0.04 0.05 0.07 0.09 0.09 0.09 0.08 0.07 0.07 0.07 0.07 0.07 0.08 0.07 0.06 0.04 0.04 0.03
0.04 0.05 0.05 0.06 0.06 0.04 0.04 0.04 0.05 0.04 0.05 0.07 0.10 0.13 0.14 0.12 0.10 0.08 0.05 0.04 0.04 0.04 0.04 0.04 0.04 0.05 0.06 0.08 0.09 0.09 0.09 0.09 0.08 0.07 0.07 0.07 0.07 0.07 0.07 0.06 0.05 0.04 0.03
0.05 0.06 0.06 0.07 0.06 0.04 0.04 0.04 0.04 0.03 0.03 0.05 0.09 0.11 0.13 0.10 0.08 0.06 0.04 0.03 0.03 0.04 0.04 0.04 0.05 0.06 0.08 0.08 0.07 0.07 0.07 0.07 0.07 0.06 0.06 0.07 0.07 0.07 0.06 0.06 0.05 0.04 0.04
0.06 0.06 0.06 0.06 0.05 0.04 0.04 0.04 0.02 0.02 0.02 0.04 0.07 0.09 0.10 0.08 0.05 0.05 0.04 0.04 0.04 0.04 0.04 0.04 0.05 0.06 0.07 0.07 0.06 0.05 0.06 0.06 0.06 0.05 0.05 0.06 0.06 0.06 0.06 0.06 0.06 0.05 0.04
0.05 0.05 0.05 0.05 0.05 0.04 0.03 0.03 0.02 0.02 0.03 0.05 0.06 0.07 0.08 0.07 0.05 0.04 0.05 0.05 0.05 0.05 0.04 0.05 0.05 0.05 0.06 0.06 0.06 0.05 0.06 0.06 0.05 0.04 0.04 0.04 0.05 0.05 0.05 0.06 0.05 0.04 0.04
0.04 0.04 0.04 0.04 0.05 0.04 0.03 0.03 0.02 0.02 0.03 0.05 0.06 0.07 0.07 0.07 0.05 0.04 0.04 0.05 0.05 0.05 0.05 0.06 0.06 0.05 0.05 0.05 0.05 0.05 0.05 0.05 0.05 0.04 0.04 0.04 0.04 0.04 0.05 0.05 0.05 0.04 0.04
0.03 0.02 0.03 0.03 0.04 0.03 0.03 0.03 0.02 0.02 0.03 0.04 0.05 0.06 0.06 0.06 0.06 0.05 0.04 0.04 0.04 0.05 0.05 0.06 0.06 0.06 0.05 0.05 0.05 0.04 0.04 0.04 0.04 0.04 0.05 0.05 0.05 0.05 0.05 0.05 0.05 0.05 0.05
0.02 0.02 0.02 0.03 0.03 0.02 0.02 0.02 0.02 0.02 0.03 0.04 0.05 0.05 0.05 0.05 0.05 0.05 0.04 0.04 0.04 0.05 0.05 0.06 0.06 0.07 0.06 0.05 0.05 0.04 0.04 0.03 0.04 0.04 0.05 0.06 0.06 0.06 0.06 0.06 0.05 0.05 0.05
MSLP
1006.62 1006.71 1006.70 1006.56 1006.28 1005.89 1005.43 1004.93 1004.41 1003.89 1003.33 1002.69 1001.94 1001.01 999.91 998.63 997.22 995.79 994.42 993.23 992.34 991.82 991.69 991.96 992.56 993.41 994.42 995.49 996.53 997.48 998.34 999.09 999.77 1000.41 1001.05 1001.71 1002.40 1003.11 1003.82 1004.52 1005.17 1005.76 1006.30
1005.88 1005.97 1005.96 1005.83 1005.59 1005.24 1004.82 1004.35 1003.85 1003.32 1002.73 1002.04 1001.21 1000.21 999.01 997.65 996.19 994.69 993.29 992.09 991.20 990.70 990.61 990.91 991.57 992.48 993.56 994.70 995.81 996.83 997.75 998.55 999.27 999.93 1000.58 1001.24 1001.93 1002.64 1003.36 1004.06 1004.74 1005.37 1005.95
1005.20 1005.26 1005.24 1005.12 1004.90 1004.58 1004.20 1003.76 1003.28 1002.75 1002.14 1001.42 1000.53 999.47 998.23 996.83 995.33 993.83 992.43 991.25 990.40 989.93 989.88 990.23 990.92 991.87 992.98 994.15 995.30 996.35 997.29 998.11 998.84 999.50 1000.15 1000.80 1001.48 1002.18 1002.91 1003.63 1004.34 1005.02 1005.66
1004.57 1004.60 1004.57 1004.45 1004.24 1003.95 1003.59 1003.18 1002.72 1002.19 1001.57 1000.83 999.92 998.84 997.58 996.17 994.69 993.22 991.87 990.75 989.94 989.52 989.50 989.87 990.57 991.52 992.63 993.79 994.92 995.97 996.89 997.71 998.42 999.08 999.71 1000.34 1001.01 1001.71 1002.45 1003.20 1003.96 1004.70 1005.42
1003.97 1003.98 1003.93 1003.80 1003.61 1003.34 1003.01 1002.62 1002.18 1001.66 1001.04 1000.29 999.38 998.30 997.06 995.70 994.27 992.87 991.59 990.53 989.78 989.39 989.39 989.75 990.43 991.34 992.39 993.51 994.60 995.60 996.50 997.29 997.99 998.63 999.24 999.87 1000.53 1001.24 1002.00 1002.79 1003.59 1004.40 1005.19
1003.37 1003.36 1003.30 1003.18 1002.99 1002.74 1002.43 1002.07 1001.64 1001.13 1000.52 999.79 998.90 997.86 996.67 995.37 994.02 992.71 991.51 990.52 989.81 989.45 989.43 989.75 990.36 991.20 992.17 993.21 994.24 995.19 996.06 996.83 997.52 998.16 998.78 999.41 1000.08 1000.81 1001.59 1002.41 1003.27 1004.14 1005.00
1002.73 1002.71 1002.66 1002.55 1002.38 1002.16 1001.87 1001.52 1001.11 1000.62 1000.03 999.31 998.46 997.47 996.35 995.14 993.89 992.66 991.55 990.62 989.94 989.57 989.51 989.76 990.28 991.01 991.89 992.84 993.80 994.72 995.57 996.35 997.06 997.72 998.37 999.03 999.73 1000.48 1001.28 1002.14 1003.03 1003.94 1004.85
1002.02 1002.03 1001.99 1001.91 1001.77 1001.57 1001.31 1000.98 1000.58 1000.11 999.54 998.86 998.05 997.13 996.09 994.97 993.81 992.68 991.64 990.75 990.09 989.68 989.56 989.71 990.12 990.74 991.52 992.39 993.30 994.21 995.08 995.89 996.66 997.38 998.09 998.80 999.54 1000.31 1001.14 1002.01 1002.91 1003.84 1004.76
1001.25 1001.29 1001.30 1001.26 1001.15 1000.98 1000.74 1000.44 1000.06 999.60 999.05 998.41 997.66 996.80 995.85 994.83 993.77 992.72 991.74 990.88 990.20 989.75 989.55 989.60 989.90 990.41 991.09 991.91 992.80 993.73 994.65 995.54 996.40 997.22 998.01 998.79 999.57 1000.38 1001.21 1002.07 1002.96 1003.86 1004.77
1000.43 1000.53 1000.59 1000.59 1000.54 1000.40 1000.19 999.90 999.54 999.10 998.58 997.98 997.29 996.51 995.64 994.71 993.75 992.77 991.84 991.00 990.31 989.80 989.52 989.47 989.66 990.07 990.69 991.48 992.38 993.35 994.36 995.36 996.34 997.27 998.17 999.02 999.85 1000.67 1001.49 1002.32 1003.16 1004.02 1004.86
999.62 999.77 999.89 999.95 999.93 999.84 999.65 999.39 999.04 998.63 998.14 997.58 996.95 996.25 995.47 994.63 993.75 992.85 991.97 991.15 990.44 989.88 989.52 989.38 989.48 989.82 990.39 991.17 992.10 993.15 994.26 995.38 996.49 997.55 998.55 999.47 1000.34 1001.16 1001.95 1002.73 1003.50 1004.28 1005.05
998.86 999.07 999.24 999.34 999.37 999.30 999.14 998.89 998.57 998.18 997.73 997.22 996.65 996.02 995.34 994.59 993.80 992.97 992.14 991.34 990.62 990.02 989.60 989.39 989.43 989.72 990.26 991.04 992.02 993.14 994.35 995.60 996.83 998.00 999.08 1000.07 1000.96 1001.77 1002.52 1003.23 1003.92 1004.61 1005.29
998.21 998.46 998.66 998.80 998.85 998.80 998.66 998.43 998.12 997.76 997.34 996.89 996.39 995.84 995.24 994.58 993.87 993.12 992.34 991.57 990.85 990.24 989.78 989.52 989.51 989.76 990.29 991.09 992.10 993.29 994.59 995.93 997.26 998.52 999.68 1000.70 1001.61 1002.40 1003.10 1003.75 1004.36 1004.97 1005.57
997.69 997.96 998.17 998.32 998.38 998.33 998.20 997.98 997.70 997.36 996.98 996.57 996.14 995.66 995.15 994.58 993.95 993.27 992.55 991.81 991.12 990.50 990.02 989.74 989.70 989.93 990.45 991.25 992.30 993.53 994.89 996.30 997.70 999.02 1000.22 1001.27 1002.18 1002.95 1003.62 1004.21 1004.76 1005.30 1005.85
997.31 997.56 997.77 997.90 997.95 997.90 997.76 997.55 997.28 996.97 996.63 996.27 995.88 995.47 995.02 994.53 993.97 993.36 992.70 992.01 991.34 990.74 990.26 989.98 989.92 990.14 990.65 991.46 992.51 993.77 995.16 996.60 998.04 999.39 1000.62 1001.68 1002.59 1003.36 1004.00 1004.57 1005.09 1005.59 1006.11
997.04 997.25 997.42 997.52 997.54 997.48 997.34 997.13 996.87 996.58 996.26 995.93 995.59 995.22 994.83 994.38 993.89 993.33 992.71 992.07 991.44 990.87 990.42 990.14 990.09 990.31 990.81 991.61 992.67 993.92 995.31 996.77 998.21 999.58 1000.82 1001.90 1002.82 1003.59 1004.24 1004.81 1005.33 1005.84 1006.36
996.83 996.99 997.11 997.17 997.16 997.08 996.92 996.71 996.46 996.17 995.87 995.55 995.23 994.89 994.52 994.10 993.63 993.11 992.54 991.94 991.35 990.82 990.40 990.16 990.13 990.36 990.87 991.67 992.71 993.96 995.34 996.79 998.23 999.60 1000.84 1001.94 1002.88 1003.68 1004.36 1004.96 1005.51 1006.05 1006.59
996.64 996.74 996.80 996.82 996.78 996.68 996.52 996.30 996.04 995.76 995.45 995.12 994.79 994.44 994.06 993.65 993.19 992.69 992.15 991.59 991.04 990.57 990.20 990.00 990.02 990.28 990.82 991.62 992.66 993.90 995.27 996.70 998.13 999.50 1000.76 1001.87 1002.85 1003.69 1004.41 1005.06 1005.66 1006.25 1006.83
996.42 996.47 996.49 996.48 996.41 996.29 996.12 995.89 995.62 995.31 994.98 994.63 994.26 993.87 993.47 993.03 992.56 992.06 991.53 991.01 990.52 990.11 989.82 989.69 989.78 990.10 990.67 991.51 992.56 993.79 995.15 996.58 998.00 999.37 1000.64 1001.78 1002.79 1003.68 1004.46 1005.16 1005.82 1006.45 1007.08
996.17 996.17 996.16 996.12 996.04 995.91 995.72 995.47 995.18 994.83 994.46 994.06 993.63 993.19 992.73 992.25 991.75 991.25 990.75 990.27 989.85 989.52 989.32 989.29 989.47 989.88 990.52 991.40 992.49 993.73 995.09 996.51 997.93 999.30 1000.57 1001.74 1002.78 1003.71 1004.54 1005.30 1006.00 1006.68 1007.33
995.87 995.84 995.81 995.75 995.66 995.50 995.29 995.01 994.68 994.29 993.86 993.39 992.90 992.39 991.87 991.34 990.82 990.32 989.85 989.43 989.09 988.87 988.79 988.89 989.19 989.70 990.44 991.39 992.52 993.79 995.16 996.58 997.99 999.35 1000.63 1001.80 1002.86 1003.82 1004.68 1005.48 1006.21 1006.91 1007.58
995.52 995.48 995.43 995.35 995.23 995.04 994.80 994.48 994.09 993.64 993.14 992.60 992.04 991.47 990.90 990.35 989.82 989.34 988.92 988.58 988.35 988.26 988.32 988.57 989.01 989.66 990.50 991.54 992.72 994.03 995.41 996.82 998.22 999.56 1000.83 1001.99 1003.05 1004.02 1004.89 1005.70 1006.45 1007.15 1007.82
995.13 995.06 994.99 994.87 994.71 994.48 994.18 993.80 993.35 992.84 992.28 991.69 991.07 990.46 989.87 989.32 988.82 988.39 988.05 987.82 987.73 987.79 988.02 988.43 989.03 989.81 990.77 991.89 993.14 994.47 995.86 997.25 998.62 999.93 1001.16 1002.30 1003.34 1004.28 1005.15 1005.95 1006.69 1007.39 1008.05
994.68 994.58 994.45 994.29 994.06 993.76 993.39 992.95 992.44 991.87 991.27 990.64 990.01 989.40 988.82 988.31 987.88 987.55 987.33 987.25 987.31 987.55 987.95 988.53 989.28 990.20 991.27 992.46 993.75 995.10 996.48 997.84 999.17 1000.43 1001.61 1002.69 1003.69 1004.61 1005.45 1006.22 1006.95 1007.64 1008.28
994.15 993.99 993.80 993.55 993.24 992.87 992.42 991.92 991.35 990.75 990.13 989.51 988.90 988.34 987.83 987.42 987.10 986.90 986.84 986.92 987.17 987.58 988.15 988.90 989.79 990.83 991.99 993.24 994.55 995.90 997.24 998.56 999.82 1001.01 1002.12 1003.15 1004.09 1004.96 1005.77 1006.53 1007.24 1007.91 1008.54
993.51 993.28 992.99 992.65 992.26 991.80 991.29 990.74 990.15 989.55 988.95 988.38 987.85 987.39 987.01 986.73 986.56 986.53 986.65 986.92 987.34 987.93 988.67 989.55 990.57 991.70 992.92 994.19 995.51 996.82 998.11 999.36 1000.54 1001.65 1002.68 1003.64 1004.53 1005.36 1006.13 1006.87 1007.57 1008.23 1008.86
Thickness
5517 5520 5522 5524 5526 5529 5533 5537 5540 5542 5544 5547 5550 5553 5556 5560 5563 5566 5570 5573 5576 5578 5579 5580 5583 5584 5585 5587 5589 5591 5592 5593 5594 5594 5592 5590 5588 5587 5584 5581 5578 5575 5572
5509 5512 5514 5516 5518 5522 5526 5529 5532 5535 5538 5541 5543 5547 5551 5555 5559 5562 5566 5569 5572 5575 5576 5576 5578 5579 5580 5583 5585 5587 5587 5588 5588 5586 5583 5580 5580 5579 5577 5573 5570 5566 5564
5500 5503 5506 5507 5511 5514 5518 5521 5524 5528 5532 5535 5538 5542 5546 5549 5553 5557 5561 5565 5568 5570 5572 5573 5574 5574 5576 5579 5581 5581 5581 5581 5581 5579 5576 5573 5570 5568 5567 5564 5561 5557 5554
5489 5493 5497 5499 5502 5505 5510 5513 5517 5521 5525 5529 5534 5537 5540 5543 5547 5551 5556 5560 5563 5565 5567 5569 5571 5572 5573 5575 5576 5576 5575 5574 5573 5571 5569 5565 5563 5560 5558 5556 5552 5549 5546
5479 5483 5487 5490 5493 5497 5501 5504 5508 5514 5519 5523 5527 5531 5534 5537 5542 5547 5550 5554 5558 5560 5562 5563 5565 5567 5568 5569 5571 5570 5569 5568 5567 5565 5563 5559 5557 5553 5552 5549 5546 5541 5538
5471 5476 5479 5482 5486 5490 5494 5498 5502 5507 5513 5517 5521 5526 5529 5533 5537 5540 5543 5548 5552 5554 5556 5558 5560 5559 5560 5561 5562 5563 5563 5563 5562 5560 5558 5556 5554 5550 5547 5542 5538 5533 5531
5464 5467 5471 5474 5479 5482 5486 5491 5496 5501 5506 5511 5516 5519 5524 5528 5530 5534 5537 5541 5545 5549 5551 5553 5554 5554 5554 5554 5554 5554 5554 5555 5555 5555 5553 5552 5550 5545 5539 5535 5530 5527 5524
5457 5459 5463 5467 5471 5475 5479 5485 5490 5495 5500 5504 5508 5513 5518 5521 5524 5528 5531 5535 5539 5543 5545 5546 5548 5547 5548 5548 5548 5547 5547 5547 5546 5546 5546 5545 5541 5537 5532 5528 5523 5515 5509
5450 5453 5456 5460 5463 5468 5473 5478 5484 5489 5494 5498 5502 5507 5512 5516 5518 5521 5523 5528 5532 5535 5537 5539 5541 5541 5541 5540 5541 5540 5539 5539 5537 5536 5535 5533 5530 5526 5522 5517 5511 5507 5501
5444 5446 5449 5452 5456 5461 5466 5472 5478 5483 5487 5491 5496 5500 5505 5509 5511 5514 5517 5522 5525 5527 5529 5531 5531 5533 5534 5533 5535 5535 5534 5533 5529 5526 5524 5521 5519 5516 5513 5510 5507 5501 5494
5438 5440 5443 5446 5449 5454 5459 5464 5470 5475 5479 5484 5489 5493 5497 5501 5504 5506 5510 5515 5518 5519 5521 5523 5525 5525 5526 5526 5527 5529 5529 5525 5521 5519 5516 5512 5508 5505 5501 5498 5495 5493 5487
5430 5433 5437 5440 5443 5447 5452 5457 5462 5467 5472 5477 5481 5485 5489 5492 5495 5498 5501 5504 5508 5511 5514 5516 5517 5517 5517 5518 5519 5520 5518 5516 5514 5512 5509 5504 5500 5496 5491 5487 5483 5480 5476
5423 5427 5430 5433 5437 5441 5445 5449 5454 5459 5464 5469 5473 5477 5480 5484 5486 5489 5492 5495 5499 5503 5506 5507 5508 5509 5510 5510 5511 5510 5509 5509 5507 5505 5502 5497 5491 5487 5482 5477 5472 5468 5463
5417 5420 5424 5427 5431 5434 5438 5442 5446 5451 5455 5459 5463 5468 5473 5476 5479 5481 5485 5487 5490 5494 5496 5497 5498 5500 5501 5501 5501 5501 5502 5502 5501 5498 5494 5487 5481 5477 5473 5469 5464 5459 5454
5411 5414 5417 5420 5425 5428 5431 5434 5438 5442 5445 5449 5454 5459 5464 5468 5471 5474 5477 5480 5482 5484 5486 5488 5490 5490 5492 5492 5493 5494 5493 5492 5491 5487 5484 5479 5473 5469 5464 5459 5456 5452 5447
5405 5407 5410 5414 5418 5421 5424 5428 5429 5434 5437 5442 5447 5451 5457 5461 5463 5466 5469 5471 5473 5475 5478 5480 5481 5482 5483 5484 5484 5484 5484 5483 5481 5478 5475 5471 5467 5462 5456 5451 5447 5444 5438
5398 5401 5404 5407 5411 5414 5418 5421 5425 5427 5430 5434 5439 5444 5449 5452 5456 5458 5461 5463 5465 5468 5471 5471 5472 5473 5474 5475 5475 5474 5475 5474 5472 5469 5466 5463 5459 5454 5449 5444 5439 5434 5429
5392 5395 5397 5401 5403 5407 5410 5413 5417 5420 5424 5427 5431 5435 5440 5444 5447 5450 5453 5456 5457 5459 5462 5463 5464 5465 5465 5466 5465 5465 5465 5465 5463 5460 5457 5454 5451 5447 5442 5437 5432 5426 5421
5385 5388 5390 5393 5397 5400 5403 5406 5409 5412 5415 5418 5422 5427 5431 5435 5439 5442 5445 5449 5450 5451 5452 5454 5455 5456 5456 5456 5456 5457 5457 5456 5454 5452 5449 5445 5442 5438 5434 5429 5424 5418 5413
5377 5379 5381 5385 5390 5393 5396 5398 5401 5404 5407 5410 5414 5418 5422 5427 5432 5434 5437 5440 5442 5443 5444 5446 5447 5447 5447 5448 5447 5448 5448 5446 5444 5443 5440 5437 5434 5430 5426 5422 5417 5412 5407
5370 5372 5374 5378 5382 5384 5387 5390 5393 5396 5399 5402 5406 5410 5414 5419 5424 5427 5429 5432 5434 5435 5437 5438 5439 5439 5440 5440 5440 5440 5439 5437 5436 5434 5431 5429 5426 5422 5418 5414 5410 5405 5399
5362 5365 5367 5370 5373 5376 5379 5382 5385 5388 5392 5395 5399 5402 5407 5411 5415 5418 5421 5423 5425 5427 5429 5430 5431 5432 5432 5432 5433 5432 5431 5429 5427 5425 5423 5421 5418 5415 5411 5407 5403 5398 5393
5355 5357 5359 5361 5364 5367 5370 5374 5378 5381 5384 5388 5392 5395 5400 5404 5407 5410 5413 5415 5417 5419 5421 5422 5423 5423 5424 5424 5425 5425 5425 5423 5421 5419 5417 5414 5412 5409 5405 5401 5396 5392 5386
5348 5349 5352 5354 5357 5361 5364 5367 5370 5374 5377 5381 5385 5389 5393 5397 5400 5402 5405 5407 5410 5412 5413 5414 5415 5416 5416 5417 5417 5417 5417 5415 5413 5411 5410 5409 5406 5402 5399 5395 5390 5385 5381
5340 5342 5344 5347 5350 5353 5357 5360 5363 5366 5370 5374 5378 5382 5386 5389 5392 5395 5397 5400 5402 5404 5405 5406 5407 5408 5409 5410 5410 5410 5409 5408 5407 5405 5403 5401 5399 5396 5393 5389 5385 5380 5375
5333 5335 5337 5340 5343 5346 5349 5353 5356 5360 5364 5368 5372 5375 5379 5382 5385 5388 5390 5393 5395 5397 5398 5399 5400 5401 5402 5403 5404 5403 5402 5402 5401 5400 5398 5395 5393 5391 5388 5384 5379 5375 5370